Date,MW,Mvar
01/01/2018 00:15,4.27,-3.3
01/01/2018 00:30,4.95,-3.18
01/01/2018 00:45,5.02,-3.2
01/01/2018 01:00,4.66,-3.29
01/01/2018 01:15,4.25,-3.36
01/01/2018 01:30,3.91,-3.38
01/01/2018 01:45,3.57,-3.39
01/01/2018 02:00,3.32,-3.44
01/01/2018 02:15,3.28,-3.44
01/01/2018 02:30,3.41,-3.42
01/01/2018 02:45,3.24,-3.43
01/01/2018 03:00,3.02,-3.44
01/01/2018 03:15,2.8,-3.46
01/01/2018 03:30,2.63,-3.45
01/01/2018 03:45,2.55,-3.48
01/01/2018 04:00,2.52,-3.49
01/01/2018 04:15,2.44,-3.48
01/01/2018 04:30,2.41,-3.48
01/01/2018 04:45,2.37,-3.46
01/01/2018 05:00,2.48,-3.4
01/01/2018 05:15,2.48,-3.39
01/01/2018 05:30,2.57,-3.34
01/01/2018 05:45,2.54,-3.33
01/01/2018 06:00,2.47,-3.33
01/01/2018 06:15,2.48,-3.34
01/01/2018 06:30,2.49,-3.37
01/01/2018 06:45,2.5,-3.4
01/01/2018 07:00,2.42,-3.44
01/01/2018 07:15,2.49,-3.43
01/01/2018 07:30,2.59,-3.42
01/01/2018 07:45,2.51,-3.4
01/01/2018 08:00,2.48,-3.42
01/01/2018 08:15,2.13,-3.47
01/01/2018 08:30,2.14,-3.48
01/01/2018 08:45,2.14,-3.48
01/01/2018 09:00,2.16,-3.45
01/01/2018 09:15,2.09,-3.46
01/01/2018 09:30,2.05,-3.45
01/01/2018 09:45,2,-3.42
01/01/2018 10:00,1.87,-3.37
01/01/2018 10:15,1.87,-3.35
01/01/2018 10:30,1.76,-3.32
01/01/2018 10:45,1.8,-3.23
01/01/2018 11:00,1.68,-3.26
01/01/2018 11:15,1.65,-3.25
01/01/2018 11:30,1.61,-3.22
01/01/2018 11:45,1.58,-3.2
01/01/2018 12:00,1.53,-3.17
01/01/2018 12:15,1.48,-3.17
01/01/2018 12:30,1.48,-3.18
01/01/2018 12:45,1.55,-3.15
01/01/2018 13:00,1.54,-3.11
01/01/2018 13:15,1.47,-3.12
01/01/2018 13:30,1.43,-3.08
01/01/2018 13:45,1.44,-3.11
01/01/2018 14:00,1.55,-3.09
01/01/2018 14:15,1.61,-3.11
01/01/2018 14:30,1.43,-3.14
01/01/2018 14:45,1.62,-3.15
01/01/2018 15:00,1.72,-3.09
01/01/2018 15:15,1.73,-3.09
01/01/2018 15:30,1.83,-3.06
01/01/2018 15:45,1.89,-3.03
01/01/2018 16:00,1.97,-3.01
01/01/2018 16:15,2.14,-2.98
01/01/2018 16:30,2.28,-2.98
01/01/2018 16:45,2.2,-2.99
01/01/2018 17:00,2.33,-3.01
01/01/2018 17:15,2.49,-3.01
01/01/2018 17:30,2.69,-3
01/01/2018 17:45,2.78,-3.06
01/01/2018 18:00,2.98,-3.11
01/01/2018 18:15,3.07,-3.17
01/01/2018 18:30,3.13,-3.2
01/01/2018 18:45,3.22,-3.18
01/01/2018 19:00,3.23,-3.24
01/01/2018 19:15,3.19,-3.27
01/01/2018 19:30,3.17,-3.27
01/01/2018 19:45,3.16,-3.28
01/01/2018 20:00,3.1,-3.35
01/01/2018 20:15,3.07,-3.36
01/01/2018 20:30,3.01,-3.38
01/01/2018 20:45,3.1,-3.35
01/01/2018 21:00,3.09,-3.34
01/01/2018 21:15,3.1,-3.3
01/01/2018 21:30,3.09,-3.33
01/01/2018 21:45,3.08,-3.36
01/01/2018 22:00,3.03,-3.35
01/01/2018 22:15,3.28,-3.34
01/01/2018 22:30,4.02,-3.29
01/01/2018 22:45,4.21,-3.29
01/01/2018 23:00,3.9,-3.33
01/01/2018 23:15,3.86,-3.34
01/01/2018 23:30,4.01,-3.3
01/01/2018 23:45,4.12,-3.31
02/01/2018 00:00,4.22,-3.32
02/01/2018 00:15,4.16,-3.35
02/01/2018 00:30,4.8,-3.24
02/01/2018 00:45,4.88,-3.24
02/01/2018 01:00,4.48,-3.29
02/01/2018 01:15,4.17,-3.35
02/01/2018 01:30,3.8,-3.41
02/01/2018 01:45,3.39,-3.42
02/01/2018 02:00,3.05,-3.47
02/01/2018 02:15,3.06,-3.51
02/01/2018 02:30,3.36,-3.47
02/01/2018 02:45,3.21,-3.48
02/01/2018 03:00,2.85,-3.47
02/01/2018 03:15,2.71,-3.49
02/01/2018 03:30,2.55,-3.5
02/01/2018 03:45,2.46,-3.51
02/01/2018 04:00,2.41,-3.51
02/01/2018 04:15,2.39,-3.53
02/01/2018 04:30,2.39,-3.53
02/01/2018 04:45,2.36,-3.54
02/01/2018 05:00,2.41,-3.48
02/01/2018 05:15,2.41,-3.47
02/01/2018 05:30,2.46,-3.42
02/01/2018 05:45,2.54,-3.41
02/01/2018 06:00,2.59,-3.38
02/01/2018 06:15,2.59,-3.38
02/01/2018 06:30,2.7,-3.38
02/01/2018 06:45,2.75,-3.36
02/01/2018 07:00,2.93,-3.35
02/01/2018 07:15,2.92,-3.36
02/01/2018 07:30,2.9,-3.32
02/01/2018 07:45,2.8,-3.26
02/01/2018 08:00,2.99,-3.23
02/01/2018 08:15,2.61,-3.28
02/01/2018 08:30,2.44,-3.32
02/01/2018 08:45,2.42,-3.3
02/01/2018 09:00,2.31,-3.3
02/01/2018 09:15,2.34,-3.31
02/01/2018 09:30,2.3,-3.3
02/01/2018 09:45,2.31,-3.26
02/01/2018 10:00,2.23,-3.3
02/01/2018 10:15,2.26,-3.3
02/01/2018 10:30,2.21,-3.31
02/01/2018 10:45,2.02,-3.29
02/01/2018 11:00,1.85,-3.25
02/01/2018 11:15,1.83,-3.23
02/01/2018 11:30,1.94,-3.23
02/01/2018 11:45,1.99,-3.23
02/01/2018 12:00,2.07,-3.25
02/01/2018 12:15,2.03,-3.23
02/01/2018 12:30,1.94,-3.26
02/01/2018 12:45,1.86,-3.26
02/01/2018 13:00,1.97,-3.22
02/01/2018 13:15,1.92,-3.23
02/01/2018 13:30,1.79,-3.24
02/01/2018 13:45,1.76,-3.22
02/01/2018 14:00,1.81,-3.21
02/01/2018 14:15,1.81,-3.23
02/01/2018 14:30,1.73,-3.23
02/01/2018 14:45,1.5,-3.22
02/01/2018 15:00,1.6,-3.15
02/01/2018 15:15,1.7,-3.16
02/01/2018 15:30,1.65,-3.15
02/01/2018 15:45,1.73,-3.07
02/01/2018 16:00,1.75,-3.04
02/01/2018 16:15,1.79,-3.06
02/01/2018 16:30,1.91,-3.05
02/01/2018 16:45,2.12,-3.05
02/01/2018 17:00,2.21,-3.06
02/01/2018 17:15,2.38,-3.07
02/01/2018 17:30,2.5,-3.07
02/01/2018 17:45,2.52,-3.11
02/01/2018 18:00,2.57,-3.16
02/01/2018 18:15,2.71,-3.24
02/01/2018 18:30,2.85,-3.23
02/01/2018 18:45,2.92,-3.26
02/01/2018 19:00,3.06,-3.25
02/01/2018 19:15,3.19,-3.28
02/01/2018 19:30,3.24,-3.27
02/01/2018 19:45,3.25,-3.32
02/01/2018 20:00,3.11,-3.36
02/01/2018 20:15,3.02,-3.37
02/01/2018 20:30,3.01,-3.4
02/01/2018 20:45,3.06,-3.34
02/01/2018 21:00,3.13,-3.31
02/01/2018 21:15,3.17,-3.31
02/01/2018 21:30,3.14,-3.35
02/01/2018 21:45,3.11,-3.38
02/01/2018 22:00,3.06,-3.39
02/01/2018 22:15,3.33,-3.36
02/01/2018 22:30,4.01,-3.34
02/01/2018 22:45,4.25,-3.3
02/01/2018 23:00,3.94,-3.33
02/01/2018 23:15,3.87,-3.34
02/01/2018 23:30,4.12,-3.34
02/01/2018 23:45,4.2,-3.32
03/01/2018 00:00,4.22,-3.33
03/01/2018 00:15,4.22,-3.31
03/01/2018 00:30,4.89,-3.23
03/01/2018 00:45,5.1,-3.28
03/01/2018 01:00,4.66,-3.38
03/01/2018 01:15,4.15,-3.4
03/01/2018 01:30,3.71,-3.42
03/01/2018 01:45,3.41,-3.45
03/01/2018 02:00,3.15,-3.5
03/01/2018 02:15,3.2,-3.48
03/01/2018 02:30,3.39,-3.47
03/01/2018 02:45,3.28,-3.47
03/01/2018 03:00,2.91,-3.5
03/01/2018 03:15,2.83,-3.49
03/01/2018 03:30,2.64,-3.51
03/01/2018 03:45,2.52,-3.52
03/01/2018 04:00,2.47,-3.51
03/01/2018 04:15,2.46,-3.51
03/01/2018 04:30,2.43,-3.5
03/01/2018 04:45,2.39,-3.5
03/01/2018 05:00,2.43,-3.47
03/01/2018 05:15,2.45,-3.43
03/01/2018 05:30,2.59,-3.39
03/01/2018 05:45,2.57,-3.37
03/01/2018 06:00,2.63,-3.38
03/01/2018 06:15,2.75,-3.31
03/01/2018 06:30,2.82,-3.31
03/01/2018 06:45,2.78,-3.3
03/01/2018 07:00,2.95,-3.29
03/01/2018 07:15,3.1,-3.25
03/01/2018 07:30,3.19,-3.25
03/01/2018 07:45,3.04,-3.35
03/01/2018 08:00,3.01,-3.33
03/01/2018 08:15,2.52,-3.31
03/01/2018 08:30,2.43,-3.34
03/01/2018 08:45,2.32,-3.33
03/01/2018 09:00,2.18,-3.3
03/01/2018 09:15,2.2,-3.3
03/01/2018 09:30,2.26,-3.26
03/01/2018 09:45,2.16,-3.27
03/01/2018 10:00,1.98,-3.3
03/01/2018 10:15,1.94,-3.29
03/01/2018 10:30,1.96,-3.25
03/01/2018 10:45,1.88,-3.19
03/01/2018 11:00,1.72,-3.23
03/01/2018 11:15,1.61,-3.24
03/01/2018 11:30,1.59,-3.2
03/01/2018 11:45,1.66,-3.19
03/01/2018 12:00,1.65,-3.19
03/01/2018 12:15,1.55,-3.19
03/01/2018 12:30,1.57,-3.17
03/01/2018 12:45,1.46,-3.17
03/01/2018 13:00,1.46,-3.17
03/01/2018 13:15,1.39,-3.17
03/01/2018 13:30,1.3,-3.14
03/01/2018 13:45,1.28,-3.15
03/01/2018 14:00,1.35,-3.15
03/01/2018 14:15,1.36,-3.14
03/01/2018 14:30,1.3,-3.15
03/01/2018 14:45,1.35,-3.12
03/01/2018 15:00,1.45,-3.13
03/01/2018 15:15,1.48,-3.11
03/01/2018 15:30,1.54,-3.07
03/01/2018 15:45,1.59,-3.02
03/01/2018 16:00,1.66,-2.94
03/01/2018 16:15,1.75,-2.89
03/01/2018 16:30,1.84,-2.91
03/01/2018 16:45,1.96,-2.9
03/01/2018 17:00,2.02,-2.9
03/01/2018 17:15,2.19,-2.9
03/01/2018 17:30,2.45,-2.88
03/01/2018 17:45,2.54,-2.93
03/01/2018 18:00,2.59,-3.06
03/01/2018 18:15,2.65,-3.17
03/01/2018 18:30,2.77,-3.19
03/01/2018 18:45,2.86,-3.18
03/01/2018 19:00,3.01,-3.23
03/01/2018 19:15,3.12,-3.23
03/01/2018 19:30,3.09,-3.26
03/01/2018 19:45,3.07,-3.27
03/01/2018 20:00,3.08,-3.31
03/01/2018 20:15,3.05,-3.3
03/01/2018 20:30,3.09,-3.35
03/01/2018 20:45,3.06,-3.31
03/01/2018 21:00,3.08,-3.27
03/01/2018 21:15,3.11,-3.25
03/01/2018 21:30,3.12,-3.24
03/01/2018 21:45,3.1,-3.28
03/01/2018 22:00,3,-3.32
03/01/2018 22:15,3.32,-3.29
03/01/2018 22:30,4.03,-3.26
03/01/2018 22:45,4.27,-3.25
03/01/2018 23:00,3.87,-3.32
03/01/2018 23:15,3.89,-3.3
03/01/2018 23:30,4.02,-3.31
03/01/2018 23:45,4.17,-3.3
04/01/2018 00:00,4.15,-3.31
04/01/2018 00:15,4.13,-3.29
04/01/2018 00:30,4.81,-3.26
04/01/2018 00:45,5,-3.29
04/01/2018 01:00,4.51,-3.37
04/01/2018 01:15,4.08,-3.36
04/01/2018 01:30,3.72,-3.4
04/01/2018 01:45,3.46,-3.4
04/01/2018 02:00,3.14,-3.47
04/01/2018 02:15,3.21,-3.47
04/01/2018 02:30,3.43,-3.46
04/01/2018 02:45,3.21,-3.46
04/01/2018 03:00,2.96,-3.47
04/01/2018 03:15,2.69,-3.51
04/01/2018 03:30,2.61,-3.48
04/01/2018 03:45,2.56,-3.51
04/01/2018 04:00,2.43,-3.54
04/01/2018 04:15,2.38,-3.56
04/01/2018 04:30,2.39,-3.54
04/01/2018 04:45,2.39,-3.53
04/01/2018 05:00,2.44,-3.49
04/01/2018 05:15,2.47,-3.47
04/01/2018 05:30,2.49,-3.42
04/01/2018 05:45,2.55,-3.39
04/01/2018 06:00,2.57,-3.4
04/01/2018 06:15,2.67,-3.36
04/01/2018 06:30,2.76,-3.39
04/01/2018 06:45,2.85,-3.38
04/01/2018 07:00,2.86,-3.33
04/01/2018 07:15,3.06,-3.29
04/01/2018 07:30,3.12,-3.29
04/01/2018 07:45,3.03,-3.24
04/01/2018 08:00,2.99,-3.16
04/01/2018 08:15,2.47,-3.25
04/01/2018 08:30,2.38,-3.26
04/01/2018 08:45,2.31,-3.21
04/01/2018 09:00,2.16,-3.19
04/01/2018 09:15,2.07,-3.18
04/01/2018 09:30,1.97,-3.18
04/01/2018 09:45,1.86,-3.18
04/01/2018 10:00,1.75,-3.17
04/01/2018 10:15,1.63,-3.2
04/01/2018 10:30,1.54,-3.18
04/01/2018 10:45,1.47,-3.14
04/01/2018 11:00,1.52,-3.12
04/01/2018 11:15,1.44,-3.11
04/01/2018 11:30,1.47,-3.04
04/01/2018 11:45,1.39,-3.03
04/01/2018 12:00,1.37,-3.04
04/01/2018 12:15,1.37,-3.06
04/01/2018 12:30,1.31,-3.06
04/01/2018 12:45,1.33,-3.04
04/01/2018 13:00,1.35,-3.03
04/01/2018 13:15,1.38,-3.06
04/01/2018 13:30,1.38,-3.08
04/01/2018 13:45,1.34,-3.06
04/01/2018 14:00,1.27,-3.06
04/01/2018 14:15,1.31,-3.06
04/01/2018 14:30,1.34,-3.04
04/01/2018 14:45,1.41,-3
04/01/2018 15:00,1.57,-3
04/01/2018 15:15,1.6,-2.99
04/01/2018 15:30,1.66,-2.94
04/01/2018 15:45,1.78,-2.91
04/01/2018 16:00,1.92,-2.83
04/01/2018 16:15,2,-2.84
04/01/2018 16:30,2.07,-2.84
04/01/2018 16:45,2.17,-2.81
04/01/2018 17:00,2.33,-2.85
04/01/2018 17:15,2.48,-2.84
04/01/2018 17:30,2.64,-2.86
04/01/2018 17:45,2.8,-2.92
04/01/2018 18:00,2.97,-2.9
04/01/2018 18:15,3.05,-2.99
04/01/2018 18:30,3.07,-3
04/01/2018 18:45,3.19,-3.06
04/01/2018 19:00,3.3,-3.08
04/01/2018 19:15,3.25,-3.18
04/01/2018 19:30,3.3,-3.19
04/01/2018 19:45,3.31,-3.23
04/01/2018 20:00,3.28,-3.25
04/01/2018 20:15,3.17,-3.29
04/01/2018 20:30,3.16,-3.3
04/01/2018 20:45,3.13,-3.28
04/01/2018 21:00,3.2,-3.26
04/01/2018 21:15,3.27,-3.21
04/01/2018 21:30,3.28,-3.2
04/01/2018 21:45,3.22,-3.24
04/01/2018 22:00,3.14,-3.3
04/01/2018 22:15,3.41,-3.29
04/01/2018 22:30,4.01,-3.25
04/01/2018 22:45,4.18,-3.24
04/01/2018 23:00,3.81,-3.28
04/01/2018 23:15,3.81,-3.29
04/01/2018 23:30,3.99,-3.25
04/01/2018 23:45,4.01,-3.27
05/01/2018 00:00,4.08,-3.27
05/01/2018 00:15,4.14,-3.25
05/01/2018 00:30,4.87,-3.28
05/01/2018 00:45,5,-3.26
05/01/2018 01:00,4.58,-3.35
05/01/2018 01:15,4.15,-3.34
05/01/2018 01:30,3.74,-3.38
05/01/2018 01:45,3.36,-3.42
05/01/2018 02:00,3.09,-3.46
05/01/2018 02:15,3.14,-3.47
05/01/2018 02:30,3.34,-3.44
05/01/2018 02:45,3.16,-3.46
05/01/2018 03:00,2.91,-3.48
05/01/2018 03:15,2.76,-3.47
05/01/2018 03:30,2.62,-3.5
05/01/2018 03:45,2.44,-3.52
05/01/2018 04:00,2.39,-3.52
05/01/2018 04:15,2.44,-3.5
05/01/2018 04:30,2.37,-3.53
05/01/2018 04:45,2.35,-3.5
05/01/2018 05:00,2.42,-3.43
05/01/2018 05:15,2.46,-3.41
05/01/2018 05:30,2.49,-3.4
05/01/2018 05:45,2.56,-3.37
05/01/2018 06:00,2.6,-3.34
05/01/2018 06:15,2.69,-3.31
05/01/2018 06:30,2.8,-3.38
05/01/2018 06:45,2.86,-3.37
05/01/2018 07:00,2.91,-3.34
05/01/2018 07:15,2.99,-3.32
05/01/2018 07:30,3.1,-3.28
05/01/2018 07:45,2.97,-3.22
05/01/2018 08:00,2.98,-3.22
05/01/2018 08:15,2.44,-3.24
05/01/2018 08:30,2.41,-3.22
05/01/2018 08:45,2.28,-3.2
05/01/2018 09:00,2.2,-3.19
05/01/2018 09:15,2.16,-3.22
05/01/2018 09:30,2.09,-3.17
05/01/2018 09:45,1.98,-3.2
05/01/2018 10:00,1.86,-3.17
05/01/2018 10:15,1.74,-3.14
05/01/2018 10:30,1.63,-3.14
05/01/2018 10:45,1.53,-3.12
05/01/2018 11:00,1.41,-3.1
05/01/2018 11:15,1.43,-3.06
05/01/2018 11:30,1.44,-3.06
05/01/2018 11:45,1.46,-3.02
05/01/2018 12:00,1.41,-3
05/01/2018 12:15,1.46,-3
05/01/2018 12:30,1.45,-2.99
05/01/2018 12:45,1.37,-3.01
05/01/2018 13:00,1.36,-3
05/01/2018 13:15,1.4,-2.98
05/01/2018 13:30,1.47,-2.94
05/01/2018 13:45,1.46,-2.97
05/01/2018 14:00,1.48,-2.96
05/01/2018 14:15,1.52,-2.93
05/01/2018 14:30,1.59,-2.91
05/01/2018 14:45,1.66,-2.89
05/01/2018 15:00,1.75,-2.87
05/01/2018 15:15,1.82,-2.87
05/01/2018 15:30,1.96,-2.82
05/01/2018 15:45,2.19,-2.83
05/01/2018 16:00,2.24,-2.79
05/01/2018 16:15,2.36,-2.76
05/01/2018 16:30,2.58,-2.73
05/01/2018 16:45,2.78,-2.68
05/01/2018 17:00,2.84,-2.72
05/01/2018 17:15,2.97,-2.74
05/01/2018 17:30,3.18,-2.74
05/01/2018 17:45,3.25,-2.77
05/01/2018 18:00,3.38,-2.77
05/01/2018 18:15,3.47,-2.88
05/01/2018 18:30,3.52,-2.95
05/01/2018 18:45,3.63,-3
05/01/2018 19:00,3.46,-3.05
05/01/2018 19:15,3.52,-3.06
05/01/2018 19:30,3.7,-3.07
05/01/2018 19:45,3.62,-3.13
05/01/2018 20:00,3.51,-3.13
05/01/2018 20:15,3.46,-3.15
05/01/2018 20:30,3.36,-3.15
05/01/2018 20:45,3.38,-3.15
05/01/2018 21:00,3.39,-3.16
05/01/2018 21:15,3.35,-3.17
05/01/2018 21:30,3.34,-3.14
05/01/2018 21:45,3.36,-3.16
05/01/2018 22:00,3.33,-3.14
05/01/2018 22:15,3.6,-3.17
05/01/2018 22:30,4.27,-3.11
05/01/2018 22:45,4.34,-3.12
05/01/2018 23:00,4.03,-3.13
05/01/2018 23:15,3.95,-3.18
05/01/2018 23:30,4.07,-3.19
05/01/2018 23:45,4.19,-3.21
06/01/2018 00:00,4.11,-3.2
06/01/2018 00:15,4.2,-3.18
06/01/2018 00:30,4.94,-3.16
06/01/2018 00:45,4.92,-3.19
06/01/2018 01:00,4.48,-3.28
06/01/2018 01:15,3.92,-3.31
06/01/2018 01:30,3.59,-3.32
06/01/2018 01:45,3.26,-3.31
06/01/2018 02:00,3.01,-3.38
06/01/2018 02:15,3.1,-3.4
06/01/2018 02:30,3.3,-3.38
06/01/2018 02:45,3.13,-3.38
06/01/2018 03:00,2.94,-3.37
06/01/2018 03:15,2.73,-3.37
06/01/2018 03:30,2.67,-3.39
06/01/2018 03:45,2.56,-3.41
06/01/2018 04:00,2.54,-3.43
06/01/2018 04:15,2.48,-3.42
06/01/2018 04:30,2.48,-3.4
06/01/2018 04:45,2.48,-3.39
06/01/2018 05:00,2.52,-3.36
06/01/2018 05:15,2.51,-3.36
06/01/2018 05:30,2.54,-3.3
06/01/2018 05:45,2.53,-3.25
06/01/2018 06:00,2.6,-3.22
06/01/2018 06:15,2.68,-3.19
06/01/2018 06:30,2.7,-3.2
06/01/2018 06:45,2.78,-3.21
06/01/2018 07:00,2.84,-3.19
06/01/2018 07:15,2.94,-3.14
06/01/2018 07:30,3.04,-3.15
06/01/2018 07:45,3.05,-3.12
06/01/2018 08:00,3.06,-3.07
06/01/2018 08:15,2.8,-3.08
06/01/2018 08:30,2.81,-3.05
06/01/2018 08:45,2.76,-3.02
06/01/2018 09:00,2.77,-2.97
06/01/2018 09:15,2.82,-2.93
06/01/2018 09:30,2.91,-2.91
06/01/2018 09:45,2.95,-2.88
06/01/2018 10:00,2.97,-2.84
06/01/2018 10:15,3.12,-2.8
06/01/2018 10:30,3.22,-2.74
06/01/2018 10:45,3.24,-2.77
06/01/2018 11:00,3.34,-2.76
06/01/2018 11:15,3.39,-2.74
06/01/2018 11:30,3.41,-2.73
06/01/2018 11:45,3.54,-2.7
06/01/2018 12:00,3.62,-2.69
06/01/2018 12:15,3.73,-2.68
06/01/2018 12:30,3.87,-2.67
06/01/2018 12:45,3.96,-2.64
06/01/2018 13:00,4.11,-2.61
06/01/2018 13:15,4.16,-2.62
06/01/2018 13:30,4.28,-2.6
06/01/2018 13:45,4.34,-2.6
06/01/2018 14:00,4.48,-2.58
06/01/2018 14:15,4.6,-2.58
06/01/2018 14:30,4.69,-2.57
06/01/2018 14:45,4.87,-2.55
06/01/2018 15:00,5,-2.55
06/01/2018 15:15,5.15,-2.51
06/01/2018 15:30,5.29,-2.49
06/01/2018 15:45,5.38,-2.46
06/01/2018 16:00,5.54,-2.43
06/01/2018 16:15,5.69,-2.4
06/01/2018 16:30,5.89,-2.38
06/01/2018 16:45,5.89,-2.42
06/01/2018 17:00,5.75,-2.46
06/01/2018 17:15,5.72,-2.46
06/01/2018 17:30,5.79,-2.48
06/01/2018 17:45,5.91,-2.5
06/01/2018 18:00,5.87,-2.54
06/01/2018 18:15,5.96,-2.59
06/01/2018 18:30,5.94,-2.64
06/01/2018 18:45,5.85,-2.64
06/01/2018 19:00,5.74,-2.7
06/01/2018 19:15,5.46,-2.69
06/01/2018 19:30,5.43,-2.73
06/01/2018 19:45,5.28,-2.73
06/01/2018 20:00,5.18,-2.74
06/01/2018 20:15,4.92,-2.83
06/01/2018 20:30,4.7,-2.9
06/01/2018 20:45,4.56,-2.88
06/01/2018 21:00,4.35,-2.85
06/01/2018 21:15,4.23,-2.83
06/01/2018 21:30,4.18,-2.9
06/01/2018 21:45,4.07,-2.95
06/01/2018 22:00,3.89,-2.99
06/01/2018 22:15,4.13,-2.99
06/01/2018 22:30,4.71,-2.94
06/01/2018 22:45,4.75,-2.98
06/01/2018 23:00,4.29,-3.05
06/01/2018 23:15,4.19,-3.08
06/01/2018 23:30,4.18,-3.11
06/01/2018 23:45,4.18,-3.13
07/01/2018 00:00,4.29,-3.12
07/01/2018 00:15,4.26,-3.16
07/01/2018 00:30,4.81,-3.1
07/01/2018 00:45,4.76,-3.1
07/01/2018 01:00,4.25,-3.2
07/01/2018 01:15,3.81,-3.24
07/01/2018 01:30,3.38,-3.3
07/01/2018 01:45,3.11,-3.31
07/01/2018 02:00,2.87,-3.35
07/01/2018 02:15,2.93,-3.36
07/01/2018 02:30,3.13,-3.37
07/01/2018 02:45,2.96,-3.39
07/01/2018 03:00,2.78,-3.35
07/01/2018 03:15,2.69,-3.41
07/01/2018 03:30,2.53,-3.41
07/01/2018 03:45,2.51,-3.43
07/01/2018 04:00,2.47,-3.44
07/01/2018 04:15,2.48,-3.44
07/01/2018 04:30,2.5,-3.44
07/01/2018 04:45,2.39,-3.42
07/01/2018 05:00,2.44,-3.41
07/01/2018 05:15,2.6,-3.36
07/01/2018 05:30,2.59,-3.34
07/01/2018 05:45,2.58,-3.3
07/01/2018 06:00,2.56,-3.32
07/01/2018 06:15,2.57,-3.34
07/01/2018 06:30,2.58,-3.38
07/01/2018 06:45,2.58,-3.38
07/01/2018 07:00,2.64,-3.37
07/01/2018 07:15,2.8,-3.34
07/01/2018 07:30,2.89,-3.33
07/01/2018 07:45,2.83,-3.31
07/01/2018 08:00,2.86,-3.31
07/01/2018 08:15,2.61,-3.32
07/01/2018 08:30,2.64,-3.31
07/01/2018 08:45,2.76,-3.29
07/01/2018 09:00,2.73,-3.28
07/01/2018 09:15,2.84,-3.26
07/01/2018 09:30,2.63,-3.3
07/01/2018 09:45,2.72,-3.29
07/01/2018 10:00,2.88,-3.32
07/01/2018 10:15,2.92,-3.31
07/01/2018 10:30,2.61,-3.29
07/01/2018 10:45,2.09,-3.3
07/01/2018 11:00,1.96,-3.24
07/01/2018 11:15,1.97,-3.25
07/01/2018 11:30,1.92,-3.23
07/01/2018 11:45,1.9,-3.23
07/01/2018 12:00,1.68,-3.21
07/01/2018 12:15,1.7,-3.17
07/01/2018 12:30,1.69,-3.17
07/01/2018 12:45,1.51,-3.12
07/01/2018 13:00,1.47,-3.14
07/01/2018 13:15,1.41,-3.13
07/01/2018 13:30,1.36,-3.13
07/01/2018 13:45,1.6,-3.12
07/01/2018 14:00,1.38,-3.13
07/01/2018 14:15,1.43,-3.11
07/01/2018 14:30,1.42,-3.12
07/01/2018 14:45,1.44,-3.12
07/01/2018 15:00,1.41,-3.07
07/01/2018 15:15,1.71,-3.06
07/01/2018 15:30,2.14,-3.05
07/01/2018 15:45,2.15,-3.06
07/01/2018 16:00,2.07,-3
07/01/2018 16:15,1.96,-3
07/01/2018 16:30,1.97,-3.02
07/01/2018 16:45,2.15,-2.98
07/01/2018 17:00,2.31,-2.97
07/01/2018 17:15,2.44,-2.99
07/01/2018 17:30,2.6,-2.95
07/01/2018 17:45,2.77,-3.01
07/01/2018 18:00,2.97,-3.05
07/01/2018 18:15,3.12,-3.06
07/01/2018 18:30,3.14,-3.11
07/01/2018 18:45,3.18,-3.15
07/01/2018 19:00,3.24,-3.2
07/01/2018 19:15,3.19,-3.21
07/01/2018 19:30,3.09,-3.25
07/01/2018 19:45,3.14,-3.25
07/01/2018 20:00,3.15,-3.32
07/01/2018 20:15,3.11,-3.33
07/01/2018 20:30,3.14,-3.33
07/01/2018 20:45,3.16,-3.29
07/01/2018 21:00,3.17,-3.29
07/01/2018 21:15,3.19,-3.26
07/01/2018 21:30,3.27,-3.26
07/01/2018 21:45,3.24,-3.29
07/01/2018 22:00,3.11,-3.32
07/01/2018 22:15,3.48,-3.3
07/01/2018 22:30,4.11,-3.26
07/01/2018 22:45,4.21,-3.24
07/01/2018 23:00,3.95,-3.28
07/01/2018 23:15,3.93,-3.29
07/01/2018 23:30,4.04,-3.27
07/01/2018 23:45,4.03,-3.32
08/01/2018 00:00,4.11,-3.3
08/01/2018 00:15,4.05,-3.32
08/01/2018 00:30,4.75,-3.23
08/01/2018 00:45,4.91,-3.21
08/01/2018 01:00,4.54,-3.31
08/01/2018 01:15,4.13,-3.36
08/01/2018 01:30,3.75,-3.39
08/01/2018 01:45,3.34,-3.42
08/01/2018 02:00,3.18,-3.45
08/01/2018 02:15,3.16,-3.46
08/01/2018 02:30,3.36,-3.46
08/01/2018 02:45,3.29,-3.42
08/01/2018 03:00,2.97,-3.41
08/01/2018 03:15,2.72,-3.45
08/01/2018 03:30,2.61,-3.47
08/01/2018 03:45,2.56,-3.47
08/01/2018 04:00,2.49,-3.46
08/01/2018 04:15,2.38,-3.47
08/01/2018 04:30,2.46,-3.46
08/01/2018 04:45,2.42,-3.47
08/01/2018 05:00,2.42,-3.43
08/01/2018 05:15,2.44,-3.4
08/01/2018 05:30,2.53,-3.36
08/01/2018 05:45,2.56,-3.32
08/01/2018 06:00,2.71,-3.31
08/01/2018 06:15,2.78,-3.27
08/01/2018 06:30,2.91,-3.27
08/01/2018 06:45,2.98,-3.27
08/01/2018 07:00,2.99,-3.29
08/01/2018 07:15,3.1,-3.24
08/01/2018 07:30,3.25,-3.2
08/01/2018 07:45,3.05,-3.16
08/01/2018 08:00,3.01,-3.1
08/01/2018 08:15,2.58,-3.15
08/01/2018 08:30,2.55,-3.15
08/01/2018 08:45,2.51,-3.11
08/01/2018 09:00,2.48,-3.16
08/01/2018 09:15,2.28,-3.23
08/01/2018 09:30,2.14,-3.19
08/01/2018 09:45,1.98,-3.19
08/01/2018 10:00,1.75,-3.15
08/01/2018 10:15,1.75,-3.19
08/01/2018 10:30,1.78,-3.12
08/01/2018 10:45,1.78,-3.09
08/01/2018 11:00,1.67,-3.07
08/01/2018 11:15,1.57,-3.06
08/01/2018 11:30,1.57,-3.03
08/01/2018 11:45,1.62,-3
08/01/2018 12:00,1.6,-3.02
08/01/2018 12:15,1.64,-3.02
08/01/2018 12:30,1.74,-3.04
08/01/2018 12:45,1.86,-3.01
08/01/2018 13:00,1.83,-3.03
08/01/2018 13:15,1.69,-3.04
08/01/2018 13:30,1.71,-3.08
08/01/2018 13:45,1.53,-3
08/01/2018 14:00,1.18,-2.97
08/01/2018 14:15,1.23,-2.99
08/01/2018 14:30,1.22,-2.94
08/01/2018 14:45,1.32,-2.87
08/01/2018 15:00,1.4,-2.87
08/01/2018 15:15,1.49,-2.91
08/01/2018 15:30,1.69,-2.87
08/01/2018 15:45,1.89,-2.87
08/01/2018 16:00,1.83,-2.83
08/01/2018 16:15,1.86,-2.79
08/01/2018 16:30,2.06,-2.8
08/01/2018 16:45,2.21,-2.86
08/01/2018 17:00,2.3,-2.92
08/01/2018 17:15,2.32,-2.98
08/01/2018 17:30,2.4,-2.98
08/01/2018 17:45,2.53,-3
08/01/2018 18:00,2.68,-3.05
08/01/2018 18:15,2.82,-3.09
08/01/2018 18:30,2.95,-3.12
08/01/2018 18:45,3.1,-3.11
08/01/2018 19:00,3.21,-3.17
08/01/2018 19:15,3.19,-3.18
08/01/2018 19:30,3.19,-3.23
08/01/2018 19:45,3.22,-3.22
08/01/2018 20:00,3.14,-3.27
08/01/2018 20:15,3.15,-3.27
08/01/2018 20:30,3.08,-3.3
08/01/2018 20:45,3.08,-3.28
08/01/2018 21:00,3.06,-3.28
08/01/2018 21:15,3.06,-3.27
08/01/2018 21:30,3.17,-3.24
08/01/2018 21:45,3.18,-3.29
08/01/2018 22:00,3.1,-3.31
08/01/2018 22:15,3.43,-3.3
08/01/2018 22:30,4.07,-3.27
08/01/2018 22:45,4.26,-3.22
08/01/2018 23:00,3.86,-3.27
08/01/2018 23:15,3.79,-3.27
08/01/2018 23:30,3.93,-3.27
08/01/2018 23:45,3.96,-3.28
09/01/2018 00:00,4.06,-3.29
09/01/2018 00:15,4.21,-3.27
09/01/2018 00:30,4.86,-3.2
09/01/2018 00:45,4.98,-3.22
09/01/2018 01:00,4.57,-3.34
09/01/2018 01:15,4.05,-3.31
09/01/2018 01:30,3.66,-3.39
09/01/2018 01:45,3.31,-3.42
09/01/2018 02:00,3.01,-3.47
09/01/2018 02:15,3.05,-3.47
09/01/2018 02:30,3.31,-3.44
09/01/2018 02:45,3.13,-3.46
09/01/2018 03:00,2.9,-3.47
09/01/2018 03:15,2.7,-3.49
09/01/2018 03:30,2.57,-3.5
09/01/2018 03:45,2.5,-3.52
09/01/2018 04:00,2.45,-3.53
09/01/2018 04:15,2.41,-3.52
09/01/2018 04:30,2.42,-3.53
09/01/2018 04:45,2.37,-3.52
09/01/2018 05:00,2.43,-3.47
09/01/2018 05:15,2.51,-3.43
09/01/2018 05:30,2.59,-3.37
09/01/2018 05:45,2.61,-3.35
09/01/2018 06:00,2.73,-3.33
09/01/2018 06:15,2.88,-3.31
09/01/2018 06:30,2.97,-3.35
09/01/2018 06:45,3.03,-3.34
09/01/2018 07:00,3.03,-3.34
09/01/2018 07:15,3.06,-3.31
09/01/2018 07:30,3.2,-3.31
09/01/2018 07:45,3.06,-3.26
09/01/2018 08:00,3.04,-3.23
09/01/2018 08:15,2.44,-3.32
09/01/2018 08:30,2.33,-3.31
09/01/2018 08:45,2.22,-3.31
09/01/2018 09:00,2.14,-3.23
09/01/2018 09:15,2.13,-3.19
09/01/2018 09:30,2.07,-3.2
09/01/2018 09:45,2.08,-3.17
09/01/2018 10:00,2.09,-3.17
09/01/2018 10:15,2.03,-3.17
09/01/2018 10:30,1.81,-3.2
09/01/2018 10:45,1.76,-3.15
09/01/2018 11:00,1.75,-3.12
09/01/2018 11:15,1.77,-3.13
09/01/2018 11:30,1.95,-3.14
09/01/2018 11:45,1.77,-3.1
09/01/2018 12:00,1.62,-3.13
09/01/2018 12:15,1.61,-3.13
09/01/2018 12:30,1.47,-3.07
09/01/2018 12:45,1.38,-3.05
09/01/2018 13:00,1.34,-3.08
09/01/2018 13:15,1.19,-3.1
09/01/2018 13:30,1.11,-3.09
09/01/2018 13:45,1.05,-3.11
09/01/2018 14:00,0.94,-3.09
09/01/2018 14:15,0.93,-3.08
09/01/2018 14:30,0.91,-3.08
09/01/2018 14:45,0.97,-3.07
09/01/2018 15:00,1.07,-3
09/01/2018 15:15,1.09,-2.97
09/01/2018 15:30,1.13,-2.99
09/01/2018 15:45,1.23,-2.93
09/01/2018 16:00,1.33,-2.94
09/01/2018 16:15,1.48,-2.91
09/01/2018 16:30,1.6,-2.88